period_start,C,m1,H,J0,J1,J2,J3,J4,J5,JA,JB,JC,JD,JJ,JK,JN,#
2017-07-30 00:01:07,0.01,0.03,0.00,24.80,29.02,31.87,13.78,45.52,1009.18,2025.74,3555.99,3069.00,3522.14,599.97,588.13,2.39,0000 0000 0000 0000 000000
2017-07-30 00:06:08,0.01,0.03,0.00,24.80,29.02,31.87,13.72,45.57,1009.03,2025.72,3555.43,3068.97,3522.00,600.06,588.12,2.44,0000 0000 0000 0000 000000
2017-07-30 00:11:09,0.00,0.03,0.00,24.81,29.02,31.87,13.76,45.67,1008.85,2025.73,3555.04,3068.76,3521.98,599.99,587.88,2.49,0000 0000 0000 0000 000000
2017-07-30 00:16:11,0.02,0.03,0.00,24.83,29.02,31.86,13.78,45.79,1008.84,2025.58,3554.97,3068.08,3521.47,599.90,587.71,2.54,0000 0000 0000 0000 000000
2017-07-30 00:21:12,-0.02,0.03,0.00,24.85,29.02,31.87,13.71,45.69,1008.82,2025.27,3554.58,3068.00,3521.02,599.82,587.64,2.59,0000 0000 0000 0000 000000
2017-07-30 00:26:13,-0.00,0.03,0.00,24.87,29.04,31.89,13.75,45.66,1008.82,2025.19,3554.06,3068.00,3521.00,600.35,588.08,2.64,0000 0000 0000 0000 000000
2017-07-30 00:31:14,0.02,0.03,0.00,24.87,29.05,31.90,13.68,45.85,1008.82,2025.34,3554.01,3067.99,3521.00,599.67,587.44,2.69,0000 0000 0000 0000 000000
2017-07-30 00:36:16,-0.01,0.03,0.00,24.89,29.05,31.90,13.78,45.77,1008.81,2025.34,3554.00,3067.96,3520.96,599.85,587.55,2.74,0000 0000 0000 0000 000000
2017-07-30 00:41:17,0.00,0.03,0.00,24.90,29.05,31.91,13.72,45.64,1008.81,2025.15,3553.88,3067.83,3520.48,599.88,587.68,2.79,0000 0000 0000 0000 000000
2017-07-30 00:46:18,0.02,0.03,0.00,24.92,29.07,31.91,13.79,45.88,1008.80,2025.08,3553.15,3067.10,3520.02,600.19,587.83,2.84,0000 0000 0000 0000 000000
2017-07-30 00:51:19,-0.00,0.03,0.00,24.94,29.07,31.91,13.74,45.72,1008.81,2025.05,3553.00,3067.00,3519.98,600.06,587.66,2.89,0000 0000 0000 0000 000000
2017-07-30 00:56:20,0.00,0.03,0.00,24.94,29.07,31.93,13.78,45.98,1008.80,2025.05,3552.89,3066.99,3519.76,600.31,587.87,2.94,0000 0000 0000 0000 000000
2017-07-30 01:01:22,0.03,0.03,0.00,24.96,29.09,31.95,13.75,45.96,1008.80,2025.01,3552.19,3066.68,3519.10,600.11,587.92,2.99,0000 0000 0000 0000 000000
2017-07-30 01:06:24,0.01,0.03,0.00,24.98,29.10,31.94,13.74,45.61,1008.80,2025.01,3552.00,3066.07,3518.99,600.03,587.65,3.04,0000 0000 0000 0000 000000
2017-07-30 01:11:25,0.00,0.03,0.00,25.00,29.10,31.95,13.71,45.75,1008.78,2025.01,3551.87,3066.00,3518.93,600.17,587.68,3.09,0000 0000 0000 0000 000000
2017-07-30 01:16:26,0.01,0.03,0.00,25.02,29.12,31.98,13.73,45.75,1008.71,2025.01,3551.31,3066.00,3518.51,600.05,587.42,3.14,0000 0000 0000 0000 000000
2017-07-30 01:21:27,0.00,0.03,0.00,25.05,29.12,32.00,13.69,45.88,1008.69,2025.00,3551.01,3065.92,3518.06,599.99,587.30,3.19,0000 0000 0000 0000 000000
2017-07-30 01:26:29,0.01,0.03,0.00,25.08,29.15,31.98,13.69,45.79,1008.50,2025.00,3550.96,3065.45,3518.00,600.03,587.27,3.24,0000 0000 0000 0000 000000
2017-07-30 01:31:31,0.02,0.04,0.00,25.11,29.16,31.99,13.74,45.76,1008.38,2025.00,3550.51,3065.11,3517.97,600.20,587.22,3.29,0000 0000 0000 0000 000000
2017-07-30 01:36:32,0.01,0.04,0.00,25.14,29.17,32.03,13.73,45.79,1008.34,2025.00,3550.02,3065.00,3517.54,600.14,587.13,3.34,0000 0000 0000 0000 000000
2017-07-30 01:41:33,0.00,0.04,0.00,25.18,29.20,32.03,13.75,45.74,1008.33,2025.00,3549.99,3065.00,3517.03,600.21,587.16,3.39,0000 0000 0000 0000 000000
2017-07-30 01:46:35,0.00,0.04,0.00,25.21,29.21,32.05,13.74,45.34,1008.37,2025.00,3549.76,3064.92,3516.99,600.12,586.91,3.44,0000 0000 0000 0000 000000
2017-07-30 01:51:36,0.03,0.04,0.00,25.22,29.23,32.08,13.71,45.45,1008.34,2024.98,3549.09,3064.23,3516.43,600.02,586.84,3.49,0000 0000 0000 0000 000000
2017-07-30 01:56:38,0.01,0.04,0.00,25.24,29.25,32.09,13.71,45.36,1008.32,2024.96,3548.95,3064.01,3516.01,600.15,586.88,3.54,0000 0000 0000 0000 000000
2017-07-30 02:01:39,0.01,0.04,0.00,25.27,29.28,32.12,13.75,45.51,1008.32,2024.89,3548.31,3063.95,3515.74,600.08,586.76,3.59,0000 0000 0000 0000 000000
2017-07-30 02:06:40,0.01,0.04,0.00,25.29,29.30,32.16,13.72,45.66,1008.32,2024.75,3548.00,3063.52,3515.06,600.33,586.92,3.64,0000 0000 0000 0000 000000
2017-07-30 02:11:42,-0.03,0.04,0.00,25.33,29.32,32.17,13.74,45.54,1008.31,2024.21,3547.43,3063.02,3514.97,600.26,586.81,3.69,0000 0000 0000 0000 000000
2017-07-30 02:16:43,0.01,0.04,0.00,25.36,29.35,32.22,13.73,45.98,1008.31,2024.06,3547.01,3062.99,3514.40,600.06,586.71,3.74,0000 0000 0000 0000 000000
2017-07-30 02:21:44,0.02,0.04,0.00,25.37,29.37,32.24,13.68,45.62,1008.31,2024.05,3546.78,3062.43,3514.02,599.76,586.18,3.79,0000 0000 0000 0000 000000
2017-07-30 02:26:46,0.02,0.04,0.00,25.40,29.40,32.25,13.69,45.71,1008.30,2024.00,3546.06,3062.01,3513.52,599.97,586.41,3.84,0000 0000 0000 0000 000000
2017-07-30 02:31:47,0.01,0.04,0.00,25.43,29.43,32.30,13.71,45.79,1008.31,2024.00,3545.69,3061.88,3513.01,599.98,586.34,3.89,0000 0000 0000 0000 000000
2017-07-30 02:36:48,0.03,0.04,0.00,25.45,29.45,32.32,13.69,45.67,1008.30,2024.00,3545.03,3061.12,3512.57,599.59,585.98,3.94,0000 0000 0000 0000 000000
2017-07-30 02:41:50,0.01,0.04,0.00,25.47,29.48,32.35,13.67,45.68,1008.31,2023.99,3544.77,3060.99,3512.02,599.60,585.81,3.99,0000 0000 0000 0000 000000
2017-07-30 02:46:51,0.02,0.05,0.00,25.49,29.51,32.40,13.76,45.77,1008.30,2023.98,3544.06,3060.68,3511.89,600.30,586.46,4.04,0000 0000 0000 0000 000000
2017-07-30 02:51:53,0.04,0.05,0.00,25.52,29.53,32.42,13.67,45.53,1008.27,2023.95,3543.40,3060.03,3511.05,599.98,586.12,4.09,0000 0000 0000 0000 000000
2017-07-30 02:56:54,0.01,0.05,0.00,25.56,29.56,32.43,13.66,45.42,1008.28,2023.84,3543.00,3059.83,3510.33,600.07,586.07,4.14,0000 0000 0000 0000 000000
2017-07-30 03:01:55,-0.01,0.05,0.00,25.57,29.58,32.44,13.67,45.60,1008.28,2023.40,3542.41,3059.09,3510.00,600.05,586.18,4.19,0000 0000 0000 0000 000000
2017-07-30 03:06:57,-0.01,0.05,0.00,25.51,29.60,32.52,13.70,45.37,1008.30,2023.10,3542.01,3058.99,3509.57,599.64,585.90,4.24,0000 0000 0000 0000 000000
2017-07-30 03:11:58,0.01,0.05,0.00,25.40,29.62,32.56,13.69,45.23,1008.29,2023.09,3541.88,3058.91,3509.03,599.80,586.44,4.29,0000 0000 0000 0000 000000
2017-07-30 03:16:59,0.02,0.05,0.00,25.35,29.62,32.57,13.72,45.29,1008.19,2023.04,3541.21,3058.34,3509.00,600.23,586.49,4.34,0000 0000 0000 0000 000000
2017-07-30 03:22:00,0.01,0.05,0.00,25.31,29.63,32.53,13.71,45.30,1008.01,2023.06,3541.00,3058.06,3508.78,600.18,586.50,4.39,0000 0000 0000 0000 000000
2017-07-30 03:27:02,0.00,0.05,0.00,25.28,29.63,32.47,13.71,45.36,1007.96,2023.04,3540.94,3058.00,3508.10,599.77,586.23,4.44,0000 0000 0000 0000 000000
2017-07-30 03:32:03,0.01,0.05,0.00,25.26,29.63,32.41,13.70,45.51,1007.96,2023.03,3540.38,3057.98,3508.00,599.64,586.28,4.49,0000 0000 0000 0000 000000
2017-07-30 03:37:05,0.02,0.05,0.00,25.23,29.62,32.37,13.75,45.29,1007.92,2023.02,3540.03,3057.46,3507.68,600.07,586.61,4.54,0000 0000 0000 0000 000000
2017-07-30 03:42:06,0.01,0.05,0.00,25.22,29.62,32.29,13.71,45.57,1007.87,2023.05,3539.99,3057.06,3507.07,600.16,586.66,4.59,0000 0000 0000 0000 000000
2017-07-30 03:47:07,0.04,0.05,0.00,25.22,29.60,32.26,13.73,45.37,1007.85,2023.25,3539.38,3057.00,3507.00,600.19,586.68,4.65,0000 0000 0000 0000 000000
2017-07-30 03:52:08,-0.00,0.06,0.00,25.23,29.60,32.20,13.75,45.32,1007.84,2023.27,3539.00,3056.99,3506.72,600.22,586.79,4.70,0000 0000 0000 0000 000000
2017-07-30 03:57:09,0.03,0.06,0.00,25.25,29.58,32.12,13.71,45.42,1007.84,2023.37,3538.88,3056.68,3506.09,600.14,586.52,4.75,0000 0000 0000 0000 000000
2017-07-30 04:02:11,0.04,0.06,0.00,25.26,29.57,32.06,13.75,45.38,1007.83,2023.60,3538.37,3056.11,3506.00,600.16,586.55,4.80,0000 0000 0000 0000 000000
2017-07-30 04:07:12,-0.01,0.06,0.00,25.29,29.56,32.02,13.78,45.38,1007.83,2023.58,3538.02,3056.01,3505.82,600.18,586.52,4.85,0000 0000 0000 0000 000000
2017-07-30 04:12:14,0.04,0.06,0.00,25.31,29.55,31.98,13.70,45.42,1007.83,2023.75,3537.92,3055.99,3505.12,600.11,586.54,4.90,0000 0000 0000 0000 000000
2017-07-30 04:17:15,-0.01,0.06,0.00,25.34,29.55,31.95,13.73,45.48,1007.83,2023.49,3537.56,3055.91,3505.00,599.90,586.25,4.95,0000 0000 0000 0000 000000
2017-07-30 04:22:17,0.03,0.06,0.00,25.35,29.54,31.93,13.72,45.48,1007.83,2023.47,3537.04,3055.29,3504.77,599.99,586.24,5.00,0000 0000 0000 0000 000000
2017-07-30 04:27:18,-0.01,0.06,0.00,25.38,29.52,31.92,13.70,45.61,1007.83,2023.38,3536.93,3054.99,3504.06,600.12,586.32,5.05,0000 0000 0000 0000 000000
2017-07-30 04:32:19,0.04,0.06,0.00,25.41,29.52,31.90,13.69,45.42,1007.77,2023.23,3536.17,3054.60,3503.49,600.11,586.14,5.10,0000 0000 0000 0000 000000
2017-07-30 04:37:20,0.01,0.06,0.00,25.44,29.52,31.89,13.72,45.55,1007.66,2023.17,3536.01,3054.08,3503.02,600.31,586.41,5.15,0000 0000 0000 0000 000000
2017-07-30 04:42:22,0.01,0.06,0.00,25.46,29.52,31.89,13.74,45.48,1007.58,2023.24,3535.93,3054.00,3502.97,600.19,586.05,5.20,0000 0000 0000 0000 000000
2017-07-30 04:47:23,0.01,0.06,0.00,25.49,29.52,31.89,13.69,45.76,1007.48,2023.20,3535.21,3053.98,3502.51,599.98,585.73,5.25,0000 0000 0000 0000 000000
2017-07-30 04:52:24,0.01,0.07,0.00,25.53,29.52,31.90,13.62,45.62,1007.38,2023.10,3534.98,3053.46,3502.02,599.93,585.66,5.30,0000 0000 0000 0000 000000
2017-07-30 04:57:25,0.01,0.07,0.00,25.56,29.52,31.88,13.69,45.73,1007.38,2023.05,3534.68,3053.03,3501.94,600.19,585.84,5.35,0000 0000 0000 0000 000000
2017-07-30 05:02:26,0.01,0.07,0.00,25.60,29.52,31.87,13.66,45.67,1007.36,2023.03,3534.05,3053.00,3501.23,599.87,585.34,5.40,0000 0000 0000 0000 000000
2017-07-30 05:07:28,0.00,0.07,0.00,25.62,29.52,31.88,13.67,45.67,1007.36,2023.04,3533.98,3052.97,3501.00,600.27,585.52,5.45,0000 0000 0000 0000 000000
2017-07-30 05:12:29,0.03,0.07,0.00,25.66,29.52,31.88,13.68,45.64,1007.36,2023.06,3533.31,3052.41,3500.90,600.02,585.36,5.50,0000 0000 0000 0000 000000
2017-07-30 05:17:30,0.01,0.07,0.00,25.70,29.54,31.88,13.67,45.77,1007.36,2023.01,3533.02,3052.02,3500.10,599.91,585.15,5.55,0000 0000 0000 0000 000000
2017-07-30 05:22:31,0.00,0.07,0.00,25.73,29.55,31.90,13.73,45.66,1007.35,2023.01,3532.93,3052.00,3500.00,600.06,585.24,5.60,0000 0000 0000 0000 000000
2017-07-30 05:27:33,0.02,0.07,0.00,25.78,29.56,31.90,13.66,45.68,1007.35,2023.00,3532.34,3051.88,3499.71,600.20,585.17,5.65,0000 0000 0000 0000 000000
2017-07-30 05:32:34,0.02,0.07,0.00,25.83,29.57,31.91,13.68,45.76,1007.35,2023.00,3532.00,3051.16,3499.04,600.14,585.21,5.70,0000 0000 0000 0000 000000
2017-07-30 05:37:35,0.00,0.07,0.00,25.87,29.60,31.91,13.61,45.64,1007.35,2023.00,3531.94,3051.01,3498.99,599.85,584.68,5.75,0000 0000 0000 0000 000000
2017-07-30 05:42:36,0.03,0.07,0.00,25.92,29.61,31.93,13.67,45.64,1007.34,2023.00,3531.11,3050.86,3498.51,600.04,585.00,5.80,0000 0000 0000 0000 000000
2017-07-30 05:47:37,0.02,0.08,0.00,25.96,29.62,31.96,13.68,45.62,1007.34,2022.98,3530.83,3050.16,3498.00,600.20,584.93,5.85,0000 0000 0000 0000 000000
2017-07-30 05:52:39,0.01,0.08,0.00,26.01,29.65,31.97,13.58,45.52,1007.34,2022.95,3530.11,3050.00,3497.68,599.83,584.39,5.90,0000 0000 0000 0000 000000
2017-07-30 05:57:40,0.00,0.08,0.00,26.05,29.67,31.99,13.63,45.47,1007.34,2022.83,3529.95,3049.90,3497.04,599.85,584.49,5.95,0000 0000 0000 0000 000000
2017-07-30 06:02:41,-0.01,0.08,0.00,26.10,29.70,32.01,13.68,45.63,1007.34,2022.32,3529.42,3049.28,3496.81,599.98,584.60,6.00,0000 0000 0000 0000 000000
2017-07-30 06:07:43,-0.00,0.08,0.00,26.15,29.72,32.04,13.55,45.51,1007.34,2022.10,3529.01,3049.00,3496.11,599.63,584.12,6.05,0000 0000 0000 0000 000000
2017-07-30 06:12:44,0.01,0.08,0.00,26.19,29.75,32.07,13.58,45.54,1007.36,2022.00,3528.45,3048.89,3495.96,599.95,584.22,6.10,0000 0000 0000 0000 000000
2017-07-30 06:17:45,0.03,0.08,0.00,26.22,29.77,32.10,13.68,45.48,1007.35,2022.00,3528.02,3048.34,3495.42,599.96,584.25,6.15,0000 0000 0000 0000 000000
2017-07-30 06:22:46,0.01,0.08,0.00,26.26,29.79,32.13,13.63,45.56,1007.35,2022.00,3527.74,3048.01,3495.00,600.36,584.55,6.20,0000 0000 0000 0000 000000
2017-07-30 06:27:48,0.02,0.08,0.00,26.31,29.82,32.16,13.64,45.49,1007.36,2021.99,3527.03,3047.84,3494.52,600.03,584.12,6.25,0000 0000 0000 0000 000000
2017-07-30 06:32:49,0.03,0.08,0.00,26.34,29.85,32.19,13.62,45.48,1007.36,2021.98,3526.47,3047.11,3494.01,600.22,584.26,6.30,0000 0000 0000 0000 000000
2017-07-30 06:37:50,0.01,0.08,0.00,26.39,29.88,32.22,13.63,45.24,1007.36,2021.97,3525.96,3046.95,3493.56,600.10,583.92,6.35,0000 0000 0000 0000 000000
2017-07-30 06:42:51,0.00,0.08,0.00,26.43,29.91,32.25,13.62,45.21,1007.36,2021.70,3525.13,3046.19,3492.98,600.36,584.24,6.40,0000 0000 0000 0000 000000
2017-07-30 06:47:53,-0.01,0.08,0.00,26.47,29.94,32.29,13.60,45.39,1007.36,2021.25,3524.85,3045.99,3492.25,600.38,584.14,6.45,0000 0000 0000 0000 000000
2017-07-30 06:52:54,0.02,0.08,0.00,26.52,29.97,32.33,13.55,45.17,1007.34,2021.04,3524.06,3045.30,3491.92,600.03,583.64,6.50,0000 0000 0000 0000 000000
2017-07-30 06:57:55,0.02,0.08,0.00,26.57,30.01,32.37,13.62,45.30,1007.37,2021.00,3523.47,3044.99,3491.12,600.26,583.72,6.55,0000 0000 0000 0000 000000
2017-07-30 07:02:57,0.04,0.08,0.00,26.61,30.04,32.40,13.57,45.13,1007.39,2021.00,3522.89,3044.42,3490.57,599.71,583.22,6.60,0000 0000 0000 0000 000000
2017-07-30 07:07:58,0.02,0.09,0.00,26.66,30.08,32.43,13.50,44.95,1007.50,2021.00,3522.05,3043.92,3489.87,599.84,583.36,6.65,0000 0000 0000 0000 000000
2017-07-30 07:13:00,0.04,0.09,0.00,26.71,30.11,32.46,13.61,45.08,1007.49,2020.99,3521.14,3043.08,3489.01,599.92,583.30,6.70,0000 0000 0000 0000 000000
2017-07-30 07:18:00,0.04,0.09,0.00,26.76,30.15,32.50,13.63,45.21,1007.63,2020.91,3520.37,3042.40,3488.13,600.05,583.41,6.75,0000 0000 0000 0000 000000
2017-07-30 07:23:02,-0.01,0.09,0.00,26.81,30.18,32.54,13.62,45.11,1007.72,2020.38,3519.50,3041.60,3487.22,600.52,583.83,6.80,0000 0000 0000 0000 000000
2017-07-30 07:28:03,0.03,0.09,0.00,26.86,30.22,32.58,13.50,45.14,1007.78,2020.03,3518.62,3040.76,3486.08,599.82,583.13,6.85,0000 0000 0000 0000 000000
2017-07-30 07:33:04,0.04,0.09,0.00,26.90,30.26,32.61,13.60,45.13,1007.80,2020.00,3517.76,3039.93,3485.07,600.09,583.31,6.90,0000 0000 0000 0000 000000
2017-07-30 07:38:05,0.07,0.10,0.00,26.94,30.30,32.65,13.57,45.19,1007.82,2020.00,3516.57,3038.78,3483.76,600.06,583.05,6.95,0000 0000 0000 0000 000000
2017-07-30 07:43:07,0.06,0.10,0.00,26.98,30.33,32.69,13.57,45.14,1007.81,2019.99,3515.29,3037.66,3482.49,599.83,582.85,7.00,0000 0000 0000 0000 000000
2017-07-30 07:48:08,0.02,0.10,0.00,27.03,30.37,32.73,13.60,45.27,1007.80,2019.78,3514.12,3036.70,3481.24,600.25,583.17,7.06,0000 0000 0000 0000 000000
2017-07-30 07:53:09,-0.01,0.10,0.00,27.09,30.41,32.78,13.58,45.59,1007.78,2019.11,3513.14,3035.83,3480.16,600.27,583.10,7.11,0000 0000 0000 0000 000000
2017-07-30 07:58:10,0.04,0.11,0.00,27.13,30.45,32.82,13.59,45.33,1007.79,2019.00,3512.20,3035.03,3479.26,600.20,583.01,7.16,0000 0000 0000 0000 000000
2017-07-30 08:03:12,0.05,0.11,0.00,27.17,30.49,32.85,13.58,45.17,1007.81,2019.00,3511.39,3034.20,3478.30,599.92,582.59,7.21,0000 0000 0000 0000 000000
2017-07-30 08:08:13,0.02,0.11,0.00,27.21,30.53,32.90,13.57,45.23,1007.79,2018.97,3510.78,3033.86,3477.69,600.26,582.85,7.26,0000 0000 0000 0000 000000
2017-07-30 08:13:14,0.02,0.11,0.00,27.26,30.56,32.94,13.61,44.86,1007.76,2018.90,3509.94,3033.05,3476.96,599.86,582.36,7.31,0000 0000 0000 0000 000000
2017-07-30 08:18:16,0.01,0.11,0.00,27.28,30.61,32.98,13.48,44.91,1007.76,2018.51,3509.08,3032.45,3476.13,599.97,582.34,7.36,0000 0000 0000 0000 000000
2017-07-30 08:23:17,-0.00,0.11,0.00,27.31,30.64,33.02,13.56,45.02,1007.61,2018.09,3508.34,3032.00,3475.46,599.90,582.19,7.41,0000 0000 0000 0000 000000
2017-07-30 08:28:18,0.03,0.11,0.00,27.35,30.68,33.06,13.50,45.22,1007.43,2018.00,3507.69,3031.37,3474.72,600.21,582.32,7.46,0000 0000 0000 0000 000000
2017-07-30 08:33:20,0.01,0.11,0.00,27.40,30.72,33.10,13.51,45.42,1007.46,2017.99,3507.00,3030.89,3474.01,599.94,582.02,7.51,0000 0000 0000 0000 000000
2017-07-30 08:38:21,0.04,0.12,0.00,27.45,30.76,33.14,13.62,45.38,1007.43,2017.94,3506.26,3030.10,3473.27,600.00,581.86,7.56,0000 0000 0000 0000 000000
2017-07-30 08:43:23,0.01,0.12,0.00,27.51,30.80,33.17,13.52,45.25,1007.38,2017.71,3505.45,3029.58,3472.51,599.84,581.62,7.61,0000 0000 0000 0000 000000
2017-07-30 08:48:24,-0.00,0.12,0.00,27.56,30.84,33.21,13.55,45.25,1007.41,2017.17,3504.66,3028.88,3471.70,600.09,581.71,7.66,0000 0000 0000 0000 000000
2017-07-30 08:53:26,0.03,0.12,0.00,27.60,30.88,33.26,13.64,45.02,1007.51,2017.05,3503.87,3028.07,3470.84,600.34,581.91,7.71,0000 0000 0000 0000 000000
2017-07-30 08:58:27,0.06,0.12,0.00,27.65,30.92,33.29,13.57,45.33,1007.61,2017.00,3502.78,3027.23,3469.75,599.80,581.45,7.76,0000 0000 0000 0000 000000
2017-07-30 09:03:28,0.07,0.12,0.00,27.70,30.96,33.34,13.54,44.92,1007.52,2016.99,3501.33,3025.94,3468.28,600.14,581.62,7.81,0000 0000 0000 0000 000000
2017-07-30 09:08:29,0.07,0.13,0.00,27.75,31.01,33.37,13.44,44.98,1007.50,2016.97,3500.09,3024.75,3466.79,599.77,581.11,7.86,0000 0000 0000 0000 000000
2017-07-30 09:13:31,0.05,0.13,0.00,27.80,31.05,33.42,13.55,45.03,1007.71,2016.84,3498.82,3023.67,3465.52,599.93,581.35,7.91,0000 0000 0000 0000 000000
2017-07-30 09:18:32,0.02,0.13,0.00,27.85,31.09,33.46,13.54,45.06,1007.81,2016.37,3497.41,3022.36,3463.96,599.93,581.30,7.96,0000 0000 0000 0000 000000
2017-07-30 09:23:33,0.07,0.14,0.00,27.89,31.13,33.51,13.58,44.91,1007.83,2016.02,3495.86,3020.84,3462.23,600.11,581.47,8.01,0000 0000 0000 0000 000000
2017-07-30 09:28:34,0.06,0.14,0.00,27.94,31.18,33.55,13.49,44.80,1007.83,2016.00,3494.67,3019.73,3460.84,600.15,581.28,8.06,0000 0000 0000 0000 000000
2017-07-30 09:33:36,0.08,0.14,0.00,27.98,31.22,33.59,13.47,44.98,1007.83,2016.00,3493.22,3018.42,3459.35,599.48,580.66,8.11,0000 0000 0000 0000 000000
2017-07-30 09:38:37,0.07,0.15,0.00,28.04,31.26,33.62,13.49,44.83,1007.83,2015.99,3491.73,3017.10,3457.83,600.23,581.17,8.16,0000 0000 0000 0000 000000
2017-07-30 09:43:38,0.04,0.15,0.00,28.09,31.30,33.67,13.60,45.15,1007.84,2015.90,3490.66,3016.11,3456.67,600.16,581.07,8.21,0000 0000 0000 0000 000000
2017-07-30 09:48:40,-0.01,0.15,0.00,28.13,31.34,33.71,13.56,45.00,1007.84,2015.35,3489.68,3015.24,3455.76,600.40,581.04,8.26,0000 0000 0000 0000 000000
2017-07-30 09:53:41,0.04,0.15,0.00,28.18,31.38,33.75,13.51,44.92,1007.92,2015.04,3488.63,3014.41,3454.81,600.07,580.91,8.31,0000 0000 0000 0000 000000
2017-07-30 09:58:42,0.04,0.15,0.00,28.23,31.42,33.79,13.58,44.88,1007.92,2015.00,3487.68,3013.58,3453.79,599.70,580.24,8.36,0000 0000 0000 0000 000000
2017-07-30 10:03:43,0.04,0.16,0.00,28.29,31.46,33.84,13.51,44.92,1008.15,2014.98,3486.62,3012.76,3452.79,599.93,580.63,8.41,0000 0000 0000 0000 000000
2017-07-30 10:08:44,0.02,0.16,0.00,28.36,31.51,33.88,13.53,44.88,1008.22,2014.85,3485.74,3012.01,3451.94,600.27,580.89,8.46,0000 0000 0000 0000 000000
2017-07-30 10:13:46,-0.01,0.16,0.00,28.43,31.55,33.92,13.46,44.66,1008.24,2014.44,3484.98,3011.27,3451.07,599.71,580.40,8.51,0000 0000 0000 0000 000000
2017-07-30 10:18:47,0.02,0.16,0.00,28.50,31.59,33.97,13.47,44.56,1008.13,2014.04,3484.11,3010.75,3450.27,599.97,580.22,8.56,0000 0000 0000 0000 000000
2017-07-30 10:23:49,0.04,0.16,0.00,28.57,31.64,34.02,13.46,44.48,1008.09,2014.00,3483.22,3009.97,3449.50,600.19,580.30,8.61,0000 0000 0000 0000 000000
2017-07-30 10:28:50,0.05,0.16,0.00,28.66,31.69,34.09,13.48,44.61,1008.15,2014.00,3482.30,3009.10,3448.50,600.02,580.00,8.66,0000 0000 0000 0000 000000
2017-07-30 10:33:52,0.05,0.17,0.00,28.75,31.74,34.16,13.48,44.68,1008.28,2013.91,3481.23,3008.15,3447.34,599.81,579.74,8.71,0000 0000 0000 0000 000000
2017-07-30 10:38:53,0.00,0.17,0.00,28.84,31.79,34.27,13.49,44.60,1008.31,2013.51,3480.30,3007.41,3446.34,600.16,579.89,8.76,0000 0000 0000 0000 000000
2017-07-30 10:43:54,0.02,0.17,0.00,28.94,31.84,34.36,13.47,44.48,1008.31,2013.10,3479.28,3006.64,3445.36,599.72,579.28,8.81,0000 0000 0000 0000 000000
2017-07-30 10:48:56,0.04,0.17,0.00,29.04,31.89,34.44,13.36,44.52,1008.31,2013.00,3478.26,3005.83,3444.30,599.77,579.18,8.86,0000 0000 0000 0000 000000
2017-07-30 10:53:57,0.04,0.17,0.00,29.14,31.95,34.52,13.52,44.23,1008.31,2013.00,3477.28,3005.01,3443.31,600.37,579.43,8.91,0000 0000 0000 0000 000000
2017-07-30 10:58:58,0.05,0.17,0.00,29.25,32.00,34.60,13.45,44.26,1008.34,2012.98,3476.39,3004.19,3442.44,600.06,579.09,8.96,0000 0000 0000 0000 000000
2017-07-30 11:04:00,0.01,0.18,0.00,29.35,32.06,34.68,13.41,44.08,1008.33,2012.59,3475.30,3003.28,3441.34,599.99,578.65,9.01,0000 0000 0000 0000 000000
2017-07-30 11:09:01,0.02,0.18,0.00,29.46,32.12,34.78,13.46,44.22,1008.33,2012.11,3474.40,3002.54,3440.42,599.93,578.49,9.06,0000 0000 0000 0000 000000
2017-07-30 11:14:02,0.02,0.18,0.00,29.58,32.18,34.84,13.40,44.05,1008.34,2012.00,3473.72,3001.92,3439.69,599.94,578.18,9.11,0000 0000 0000 0000 000000
2017-07-30 11:19:03,0.04,0.18,0.00,29.68,32.24,34.91,13.42,44.01,1008.33,2012.00,3472.91,3001.11,3438.77,599.99,578.14,9.16,0000 0000 0000 0000 000000
2017-07-30 11:24:04,0.01,0.18,0.00,29.75,32.30,34.96,13.38,43.91,1008.33,2011.68,3472.04,3000.37,3437.86,600.04,578.07,9.21,0000 0000 0000 0000 000000
2017-07-30 11:29:06,-0.01,0.18,0.00,29.82,32.35,35.02,13.41,43.93,1008.33,2011.14,3471.20,2999.85,3437.00,600.16,578.01,9.26,0000 0000 0000 0000 000000
2017-07-30 11:34:07,0.05,0.18,0.00,29.87,32.41,35.07,13.43,44.20,1008.32,2011.00,3470.29,2998.85,3435.96,600.25,577.81,9.31,0000 0000 0000 0000 000000
2017-07-30 11:39:08,0.05,0.18,0.00,29.91,32.46,35.10,13.40,44.20,1008.32,2010.88,3469.02,2997.87,3434.71,599.97,577.72,9.37,0000 0000 0000 0000 000000
2017-07-30 11:44:09,0.02,0.19,0.00,29.92,32.51,35.13,13.38,43.89,1008.32,2010.54,3467.84,2996.87,3433.57,600.00,577.64,9.42,0000 0000 0000 0000 000000
2017-07-30 11:49:10,0.03,0.19,0.00,29.92,32.56,35.14,13.37,43.94,1008.32,2010.06,3466.53,2995.76,3432.22,599.84,577.50,9.47,0000 0000 0000 0000 000000
2017-07-30 11:54:12,0.07,0.19,0.00,29.89,32.61,35.15,13.34,43.97,1008.32,2010.00,3465.09,2994.59,3430.73,599.83,577.67,9.52,0000 0000 0000 0000 000000
2017-07-30 11:59:13,0.06,0.19,0.00,29.83,32.65,35.15,13.35,43.97,1008.32,2009.96,3463.85,2993.56,3429.53,599.91,577.77,9.57,0000 0000 0000 0000 000000
2017-07-30 12:04:14,0.00,0.20,0.00,29.75,32.69,35.19,13.41,44.11,1008.32,2009.54,3462.62,2992.62,3428.30,599.90,577.90,9.62,0000 0000 0000 0000 000000
2017-07-30 12:09:16,0.02,0.20,0.00,29.63,32.72,35.22,13.44,44.13,1008.32,2009.09,3461.46,2991.77,3427.17,600.08,578.40,9.67,0000 0000 0000 0000 000000
2017-07-30 12:14:17,0.04,0.20,0.00,29.49,32.75,35.22,13.43,44.11,1008.32,2009.01,3460.40,2990.90,3426.10,599.84,578.38,9.72,0000 0000 0000 0000 000000
2017-07-30 12:19:18,0.05,0.20,0.00,29.38,32.77,35.23,13.48,44.42,1008.32,2009.00,3459.37,2990.03,3425.09,599.96,578.67,9.77,0000 0000 0000 0000 000000
2017-07-30 12:24:19,0.05,0.20,0.00,29.29,32.80,35.24,13.46,44.22,1008.32,2009.00,3458.19,2989.13,3424.05,600.25,579.04,9.82,0000 0000 0000 0000 000000
2017-07-30 12:29:21,0.04,0.21,0.00,29.21,32.81,35.25,13.43,44.22,1008.32,2008.97,3457.22,2988.36,3423.12,599.80,578.88,9.87,0000 0000 0000 0000 000000
2017-07-30 12:34:22,0.01,0.21,0.00,29.15,32.82,35.23,13.46,44.24,1008.32,2008.73,3456.37,2987.76,3422.21,600.42,579.62,9.92,0000 0000 0000 0000 000000
2017-07-30 12:39:24,0.01,0.21,0.00,29.10,32.84,35.24,13.50,44.42,1008.32,2008.34,3455.65,2987.05,3421.42,600.01,579.32,9.97,0000 0000 0000 0000 000000
2017-07-30 12:44:25,0.01,0.21,0.00,29.06,32.85,35.25,13.55,44.26,1008.32,2008.07,3454.89,2986.52,3420.73,600.47,579.75,10.02,0000 0000 0000 0000 000000
2017-07-30 12:49:26,0.02,0.21,0.00,29.03,32.85,35.25,13.50,44.18,1008.32,2008.03,3454.07,2986.00,3420.01,599.88,579.23,10.07,0000 0000 0000 0000 000000
2017-07-30 12:54:27,0.05,0.21,0.00,29.01,32.87,35.25,13.51,44.37,1008.32,2008.03,3453.36,2985.45,3419.29,599.65,579.06,10.12,0000 0000 0000 0000 000000
2017-07-30 12:59:29,0.01,0.21,0.00,29.00,32.87,35.26,13.46,44.31,1008.32,2008.00,3452.66,2985.00,3418.77,600.07,579.39,10.17,0000 0000 0000 0000 000000